GIA252 WAHI-WADD

Flight info

Callsign GIA252
Flight time N/A
Altitude 35000
Route SO W17N PURWO DCT BA T3 MOVMO
Aircraft B738/M-SDE2E3FGHIRWY/LB1

Departure

Time 2026-04-28 11:47
Airport Yogyakarta International Airport (WAHI)

Arrival

Time N/A
Airport Denpasar I Gusti Ngurah Rai International Airport (WADD)
Time Latitude Longitude Altitude Speed Heading
2026-04-28 11:23 -7.90107 110.05870 36 ft 0 kts 21°
2026-04-28 11:27 -7.90128 110.05863 34 ft 4 kts 16°
2026-04-28 11:28 -7.90155 110.05857 35 ft 4 kts
2026-04-28 11:28 -7.90181 110.05855 32 ft 4 kts 356°
2026-04-28 11:28 -7.90207 110.05861 34 ft 4 kts 327°
2026-04-28 11:28 -7.90220 110.05874 31 ft 1 kts 290°
2026-04-28 11:29 -7.90221 110.05877 31 ft 0 kts 290°
2026-04-28 11:41 -7.90221 110.05876 35 ft 1 kts 290°
2026-04-28 11:41 -7.90215 110.05859 35 ft 4 kts 290°
2026-04-28 11:42 -7.90199 110.05818 35 ft 8 kts 290°
2026-04-28 11:42 -7.90175 110.05752 35 ft 12 kts 290°
2026-04-28 11:42 -7.90142 110.05664 34 ft 15 kts 290°
2026-04-28 11:42 -7.90102 110.05557 34 ft 18 kts 290°
2026-04-28 11:43 -7.90056 110.05432 34 ft 20 kts 291°
2026-04-28 11:43 -7.90002 110.05291 34 ft 22 kts 291°
2026-04-28 11:43 -7.89968 110.05168 34 ft 16 kts 251°
2026-04-28 11:43 -7.90063 110.05119 33 ft 15 kts 200°
2026-04-28 11:44 -7.90099 110.05035 33 ft 15 kts 288°
2026-04-28 11:44 -7.90064 110.04940 33 ft 14 kts 290°
2026-04-28 11:44 -7.90028 110.04842 34 ft 16 kts 290°
2026-04-28 11:44 -7.89988 110.04731 36 ft 17 kts 290°
2026-04-28 11:45 -7.89948 110.04621 36 ft 16 kts 290°
2026-04-28 11:45 -7.89906 110.04508 35 ft 19 kts 290°
2026-04-28 11:45 -7.89859 110.04379 36 ft 15 kts 290°
2026-04-28 11:45 -7.89901 110.04311 37 ft 15 kts 168°
2026-04-28 11:46 -7.89991 110.04351 39 ft 14 kts 155°
2026-04-28 11:46 -7.90055 110.04413 40 ft 13 kts 109°
2026-04-28 11:46 -7.90087 110.04503 38 ft 21 kts 110°
2026-04-28 11:46 -7.90223 110.04875 35 ft 90 kts 110°
2026-04-28 11:47 -7.90513 110.05667 41 ft 148 kts 109°
2026-04-28 11:47 -7.90884 110.06771 303 ft 176 kts 109°
2026-04-28 11:47 -7.91320 110.07923 1081 ft 170 kts 127°
2026-04-28 11:47 -7.92316 110.08476 1797 ft 172 kts 175°
2026-04-28 11:48 -7.93584 110.08508 2165 ft 197 kts 176°
2026-04-28 11:48 -7.95031 110.08586 2374 ft 220 kts 174°
2026-04-28 11:48 -7.96624 110.08697 2642 ft 236 kts 174°
2026-04-28 11:48 -7.98292 110.08837 3149 ft 242 kts 173°
2026-04-28 11:49 -7.99981 110.09000 3817 ft 246 kts 173°
2026-04-28 11:49 -8.01693 110.09176 4537 ft 248 kts 172°
2026-04-28 11:49 -8.03424 110.09360 5213 ft 252 kts 173°
2026-04-28 11:49 -8.05176 110.09548 5923 ft 254 kts 172°
2026-04-28 11:50 -8.06902 110.09998 6411 ft 265 kts 155°
2026-04-28 11:50 -8.08613 110.10811 6835 ft 276 kts 153°
2026-04-28 11:50 -8.10356 110.11662 7455 ft 281 kts 153°
2026-04-28 11:50 -8.12126 110.12518 8127 ft 283 kts 153°
2026-04-28 11:51 -8.13919 110.13374 8822 ft 286 kts 153°
2026-04-28 11:51 -8.15729 110.14230 9479 ft 289 kts 153°
2026-04-28 11:51 -8.17561 110.15091 10109 ft 292 kts 153°
2026-04-28 11:51 -8.19451 110.15977 10403 ft 309 kts 153°
2026-04-28 11:52 -8.21458 110.16917 10554 ft 329 kts 153°
2026-04-28 11:52 -8.23569 110.17903 10751 ft 345 kts 153°
2026-04-28 11:52 -8.25767 110.18927 11191 ft 351 kts 153°
2026-04-28 11:52 -8.28023 110.19978 11778 ft 353 kts 153°
2026-04-28 11:53 -8.30270 110.21001 12372 ft 356 kts 157°
2026-04-28 11:53 -8.32691 110.21440 12887 ft 366 kts 180°
2026-04-28 11:53 -8.35220 110.20880 13494 ft 373 kts 202°
2026-04-28 11:53 -8.37364 110.19438 14019 ft 381 kts 223°
2026-04-28 11:54 -8.38921 110.17263 14534 ft 386 kts 242°
2026-04-28 11:54 -8.40100 110.14824 15087 ft 388 kts 244°
2026-04-28 11:54 -8.41083 110.12276 15552 ft 394 kts 259°
2026-04-28 11:54 -8.41136 110.09511 16040 ft 396 kts 281°
2026-04-28 11:55 -8.40261 110.06897 16613 ft 395 kts 300°
2026-04-28 11:55 -8.38617 110.04699 17156 ft 393 kts 318°
2026-04-28 11:55 -8.36379 110.03130 17646 ft 392 kts 335°
2026-04-28 11:55 -8.33909 110.01943 18164 ft 394 kts 337°
2026-04-28 11:56 -8.31414 110.00768 18566 ft 398 kts 336°
2026-04-28 11:56 -8.28870 109.99643 18953 ft 400 kts 344°
2026-04-28 11:56 -8.26131 109.99241 19352 ft 399 kts 359°
2026-04-28 11:56 -8.23348 109.99121 19789 ft 401 kts 359°
2026-04-28 11:57 -8.20551 109.98986 20166 ft 405 kts 359°
2026-04-28 11:57 -8.17728 109.98834 20571 ft 407 kts 358°
2026-04-28 11:57 -8.14890 109.98670 20974 ft 410 kts 358°
2026-04-28 11:57 -8.12034 109.98498 21350 ft 413 kts 358°
2026-04-28 11:58 -8.09158 109.98322 21712 ft 416 kts 358°
2026-04-28 11:58 -8.06260 109.98143 22074 ft 419 kts 358°
2026-04-28 11:58 -8.03342 109.97963 22426 ft 422 kts 358°
2026-04-28 11:58 -8.00402 109.97781 22794 ft 424 kts 358°
2026-04-28 11:59 -7.97446 109.97600 23139 ft 427 kts 358°
2026-04-28 11:59 -7.94472 109.97417 23463 ft 430 kts 358°
2026-04-28 11:59 -7.91481 109.97233 23757 ft 432 kts 358°
2026-04-28 11:59 -7.88470 109.97075 24069 ft 433 kts
2026-04-28 12:00 -7.85463 109.97182 24357 ft 434 kts
2026-04-28 12:00 -7.82632 109.98159 24678 ft 431 kts 32°
2026-04-28 12:00 -7.80304 110.00032 25066 ft 429 kts 47°
2026-04-28 12:00 -7.78564 110.02469 25313 ft 431 kts 63°
2026-04-28 12:01 -7.77517 110.05308 25544 ft 435 kts 77°
2026-04-28 12:01 -7.77293 110.08351 25774 ft 438 kts 94°
2026-04-28 12:01 -7.77648 110.11405 26079 ft 440 kts 97°
2026-04-28 12:01 -7.78081 110.14461 26339 ft 442 kts 97°
2026-04-28 12:02 -7.78502 110.17547 26557 ft 445 kts 97°
2026-04-28 12:02 -7.78890 110.20646 26820 ft 447 kts 96°
2026-04-28 12:02 -7.79257 110.23764 27097 ft 448 kts 96°
2026-04-28 12:02 -7.79600 110.26892 27357 ft 450 kts 95°
2026-04-28 12:03 -7.79936 110.30034 27612 ft 451 kts 95°
2026-04-28 12:03 -7.79935 110.33240 27813 ft 453 kts 82°
2026-04-28 12:03 -7.79442 110.36330 28086 ft 453 kts 80°
2026-04-28 12:03 -7.78945 110.39479 28336 ft 455 kts 81°
2026-04-28 12:04 -7.78269 110.42640 28523 ft 457 kts 69°
2026-04-28 12:04 -7.76792 110.45468 28720 ft 458 kts 53°
2026-04-28 12:04 -7.74781 110.47898 28990 ft 458 kts 49°
2026-04-28 12:04 -7.72632 110.50329 29180 ft 460 kts 48°
2026-04-28 12:05 -7.70513 110.52707 29355 ft 463 kts 48°
2026-04-28 12:05 -7.68342 110.55167 29565 ft 464 kts 48°
2026-04-28 12:05 -7.66238 110.57581 29789 ft 465 kts 49°
2026-04-28 12:05 -7.64107 110.60046 29986 ft 467 kts 49°
2026-04-28 12:06 -7.61980 110.62520 30152 ft 468 kts 49°
2026-04-28 12:06 -7.59847 110.65003 30324 ft 469 kts 49°
2026-04-28 12:06 -7.57707 110.67492 30511 ft 470 kts 49°
2026-04-28 12:06 -7.55565 110.69980 30762 ft 469 kts 49°
2026-04-28 12:07 -7.53311 110.72336 31012 ft 468 kts 37°
2026-04-28 12:07 -7.50502 110.73963 31240 ft 467 kts 21°
2026-04-28 12:07 -7.47387 110.74827 31495 ft 466 kts
2026-04-28 12:07 -7.44149 110.74984 31750 ft 466 kts
2026-04-28 12:08 -7.40913 110.74977 31971 ft 466 kts
2026-04-28 12:08 -7.37669 110.74958 32189 ft 466 kts
2026-04-28 12:08 -7.34434 110.74968 32479 ft 464 kts
2026-04-28 12:08 -7.31209 110.75009 32786 ft 462 kts
2026-04-28 12:09 -7.28000 110.75064 33070 ft 461 kts
2026-04-28 12:09 -7.24842 110.75523 33260 ft 460 kts 19°
2026-04-28 12:09 -7.21978 110.76929 33484 ft 458 kts 35°
2026-04-28 12:09 -7.19603 110.79048 33795 ft 456 kts 49°
2026-04-28 12:10 -7.17781 110.81649 34013 ft 456 kts 63°
2026-04-28 12:10 -7.16640 110.84637 34151 ft 458 kts 72°
2026-04-28 12:10 -7.15713 110.87708 34324 ft 459 kts 73°
2026-04-28 12:10 -7.15110 110.89797 34460 ft 459 kts 73°
2026-04-28 12:11 -7.13937 110.93872 34778 ft 457 kts 73°
2026-04-28 12:11 -7.13331 110.95947 34843 ft 459 kts 73°
2026-04-28 12:11 -7.11483 111.02115 34833 ft 459 kts 72°
2026-04-28 12:12 -7.09623 111.08202 34836 ft 456 kts 72°
2026-04-28 12:12 -7.07759 111.14282 34848 ft 454 kts 72°
2026-04-28 12:13 -7.05905 111.20338 34846 ft 452 kts 72°
2026-04-28 12:13 -7.04057 111.26373 34846 ft 451 kts 72°
2026-04-28 12:14 -7.02212 111.32399 34843 ft 450 kts 72°
2026-04-28 12:14 -7.00427 111.38440 34832 ft 451 kts 79°
2026-04-28 12:15 -7.00169 111.41588 34845 ft 452 kts 92°
2026-04-28 12:15 -7.00559 111.44728 34843 ft 454 kts 103°
2026-04-28 12:15 -7.02819 111.50673 34850 ft 457 kts 112°
2026-04-28 12:16 -7.05368 111.56553 34850 ft 459 kts 112°
2026-04-28 12:16 -7.07902 111.62478 34836 ft 462 kts 112°
2026-04-28 12:17 -7.10410 111.68438 34842 ft 463 kts 112°
2026-04-28 12:17 -7.12911 111.74425 34843 ft 464 kts 112°
2026-04-28 12:18 -7.15416 111.80428 34843 ft 465 kts 112°
2026-04-28 12:18 -7.17920 111.86430 34842 ft 465 kts 112°
2026-04-28 12:19 -7.20424 111.92429 34843 ft 464 kts 112°
2026-04-28 12:19 -7.22919 111.98409 34843 ft 463 kts 112°
2026-04-28 12:20 -7.25409 112.04380 34846 ft 462 kts 112°
2026-04-28 12:20 -7.27891 112.10334 34846 ft 460 kts 112°
2026-04-28 12:21 -7.30365 112.16274 34851 ft 459 kts 112°
2026-04-28 12:21 -7.32833 112.22198 34848 ft 458 kts 112°
2026-04-28 12:22 -7.35293 112.28109 34848 ft 457 kts 112°
2026-04-28 12:22 -7.37747 112.34005 34853 ft 456 kts 112°
2026-04-28 12:23 -7.40198 112.39900 34854 ft 456 kts 112°
2026-04-28 12:23 -7.42651 112.45800 34853 ft 456 kts 112°
2026-04-28 12:24 -7.45105 112.51704 34864 ft 458 kts 112°
2026-04-28 12:24 -7.47568 112.57635 34860 ft 459 kts 112°
2026-04-28 12:25 -7.50038 112.63582 34861 ft 461 kts 112°
2026-04-28 12:25 -7.52514 112.69549 34858 ft 462 kts 112°
2026-04-28 12:26 -7.55001 112.75542 34859 ft 464 kts 112°
2026-04-28 12:26 -7.57488 112.81539 34872 ft 464 kts 112°
2026-04-28 12:27 -7.59974 112.87539 34866 ft 464 kts 112°
2026-04-28 12:27 -7.62461 112.93540 34868 ft 464 kts 111°
2026-04-28 12:28 -7.64941 112.99531 34864 ft 463 kts 112°
2026-04-28 12:28 -7.67419 113.05517 34871 ft 462 kts 112°
2026-04-28 12:29 -7.71125 113.14476 34877 ft 461 kts 112°
2026-04-28 12:30 -7.73592 113.20442 34881 ft 461 kts 112°
2026-04-28 12:30 -7.76059 113.26412 34888 ft 461 kts 112°
2026-04-28 12:31 -7.78529 113.32392 34884 ft 462 kts 112°
2026-04-28 12:31 -7.81001 113.38378 34899 ft 463 kts 112°
2026-04-28 12:32 -7.83476 113.44376 34905 ft 464 kts 112°
2026-04-28 12:32 -7.86074 113.50675 34884 ft 465 kts 112°